Location: Usti nad Labem
(50.6670°N, 14.0330°E)
Time: 12:57:19
(UTC+01:00)

ISS - Visible Passes

Search period start: 11 February 2026 00:00
Search period end: 21 February 2026 00:00
Orbit: 413 x 429 km, 51.6° (Epoch: 10 February)

Date Brightness Start Highest point End Pass type
(mag) Time Alt. Az. Time Alt. Az. Time Alt. Az.
12 Feb -0.9 06:21:24 10° S 06:23:33 16° SE 06:25:43 10° E visible
13 Feb -0.6 05:35:49 10° SSE 05:36:44 11° SE 05:37:40 10° ESE visible
14 Feb -2.1 06:22:55 10° SW 06:25:58 33° SSE 06:29:00 10° E visible
15 Feb -1.7 05:36:20 10° SSW 05:39:01 24° SE 05:41:45 10° E visible
16 Feb -1.3 04:51:30 16° SSE 04:52:05 17° SE 04:54:18 10° E visible
16 Feb -3.4 06:25:08 10° WSW 06:28:27 63° SSE 06:31:46 10° ENE visible
17 Feb -3.0 05:39:31 22° SW 05:41:23 47° SSE 05:44:37 10° E visible
18 Feb -2.5 04:54:25 34° SE 04:54:25 34° SE 04:57:23 10° E visible
18 Feb -3.8 06:27:38 10° W 06:30:59 85° N 06:34:20 10° ENE visible
19 Feb -0.8 04:09:12 15° E 04:09:12 15° E 04:10:05 10° E visible
19 Feb -3.8 05:42:11 28° WSW 05:43:50 81° SSE 05:47:10 10° ENE visible
20 Feb -3.4 04:56:54 61° SE 04:56:54 61° SE 04:59:59 10° ENE visible
20 Feb -3.7 06:30:10 10° W 06:33:31 72° N 06:36:52 10° E visible
